STARLINK-32917, 62921

Orbit data source: Space-Track

STARLINK-32917, 62921 is a payload satellite owned by SpaceX/Seattle (US) in LEO that was launched on Sat, 08 Feb 2025 UTC via an FALCON 9 launch vehicle from the Air Force Eastern Test Range (AFETR). Payload-class satellites include a variety of spacecraft equipped with specific instruments for various scientific and technological missions. These include communications satellites like Starlink; space stations such as the ISS; scientific satellites like the Hubble; Earth observation satellites from companies like Planet Labs, Umbra, and HawkEye 360; GPS; miniature CubeSats for education and research; and military/defense satellites.

Loading next visibility...
Identifier
62921, 2025-027Q
Orbit
LEO
Country
Flag of USUS
Related business
Manufacturer
SpaceX/Seattle
Mission
Operational Commercial Communications
Bus & Motor
STARLINK V2M, Unknown motor
Mass
730 kg wet, ~700 kg dry
Launch date (UTC)
2025-02-08 (10 months ago)
Launch vehicle
FALCON 9
Launch site
Air Force Eastern Test Range (AFETR)
Object type
Payload
Rocket body
Debris
Shape & HBR
Box + 2 Pan, 17.7 m
Radar Cross Section
33.884 m², Large (>1 m²)

Expand to show TLE details & history
Last TLE update: 19 hours ago

TLE from 19 hours ago
0 STARLINK-32917
1 62921U 25027Q   25351.05404247  .00022394  00000-0  81961-3 0  9996
2 62921  42.9962 235.6050 0001615 244.7016 115.3669 15.27628507 48907
Epoch: 2025-12-17T01:17Z
TLE epoch observation values (Epoch: 2025-12-17T01:17:49.269Z)
Latitude
0.00003°
Longitude
130.22033°
Altitude
483.154 km
Speed
7.625 km/s
True Right ascension
15h 42m 25s
True Declination
0° 00' 00"
Sunlit
Object was in daylight at epoch
Visualization orbit readout
Latitude
Unknown
Longitude
Unknown
Altitude
Unknown
Speed
Unknown
Apparent Right ascension
Unknown
Apparent Declination
Unknown
Sunlit
N/A
Visualization observer readout
Local Sidereal Time
18:36:13
Azimuth
Unknown
Elevation
Unknown
Doppler factor
Unknown
Orbital elements
Apogee altitude
485.958 km
Perigee altitude
483.741 km
Semi-major axis
6,862.987 km
Eccentricity
0.00016
Inclination
42.9962°
RAAN
235.605°
Arg. of periapsis
244.7016°
True anomaly
115.38362°
Mean anomaly
115.3669°
Eccentric anomaly
115.37526°
Mean motion
3.81745 °/min
Orbital period
94.3 mins
BSTAR
0.00081961
Loading maneuver chart data...
Computing Atmospheric mass density...
Loading historical data...
Loading historical data...
Loading historical data...
Loading historical data...
Loading historical data...
Loading historical data...
Loading historical data...

Documentation

Showing up to 5 results
|